Year,Month,Day,Hour,Minute,Value (Times are PST for temperature in C)
2008,09,17,00,00,14.10
2008,09,17,00,01,14.10
2008,09,17,00,02,14.10
2008,09,17,00,03,14.10
2008,09,17,00,04,14.10
2008,09,17,00,05,14.10
2008,09,17,00,06,14.00
2008,09,17,00,07,14.00
2008,09,17,00,08,14.00
2008,09,17,00,09,13.90
2008,09,17,00,10,13.90
2008,09,17,00,11,13.90
2008,09,17,00,12,13.90
2008,09,17,00,13,13.90
2008,09,17,00,14,13.80
2008,09,17,00,15,13.80
2008,09,17,00,16,13.80
2008,09,17,00,17,13.80
2008,09,17,00,18,13.80
2008,09,17,00,19,13.80
2008,09,17,00,20,13.80
2008,09,17,00,21,13.80
2008,09,17,00,22,13.80
2008,09,17,00,23,13.80
2008,09,17,00,24,13.80
2008,09,17,00,25,13.80
2008,09,17,00,26,13.80
2008,09,17,00,27,13.80
2008,09,17,00,28,13.80
2008,09,17,00,29,13.70
2008,09,17,00,30,13.70
2008,09,17,00,31,13.70
2008,09,17,00,32,13.70
2008,09,17,00,33,13.70
2008,09,17,00,34,13.70
2008,09,17,00,35,13.70
2008,09,17,00,36,13.70
2008,09,17,00,37,13.70
2008,09,17,00,38,13.70
2008,09,17,00,39,13.70
2008,09,17,00,40,13.70
2008,09,17,00,41,13.70
2008,09,17,00,42,13.70
2008,09,17,00,43,13.70
2008,09,17,00,44,13.70
2008,09,17,00,45,13.70
2008,09,17,00,46,13.70
2008,09,17,00,47,13.70
2008,09,17,00,48,13.60
2008,09,17,00,49,13.60
2008,09,17,00,50,13.60
2008,09,17,00,51,13.60
2008,09,17,00,52,13.60
2008,09,17,00,53,13.60
2008,09,17,00,54,13.60
2008,09,17,00,55,13.60
2008,09,17,00,56,13.50
2008,09,17,00,57,13.50
2008,09,17,00,58,13.50
2008,09,17,00,59,13.50
2008,09,17,01,00,13.50
2008,09,17,01,01,13.50
2008,09,17,01,02,13.50
2008,09,17,01,03,13.50
2008,09,17,01,04,13.60
2008,09,17,01,05,13.60
2008,09,17,01,06,13.60
2008,09,17,01,07,13.60
2008,09,17,01,08,13.60
2008,09,17,01,09,13.60
2008,09,17,01,10,13.60
2008,09,17,01,11,13.60
2008,09,17,01,12,13.60
2008,09,17,01,13,13.70
2008,09,17,01,14,13.60
2008,09,17,01,15,13.60
2008,09,17,01,16,13.60
2008,09,17,01,17,13.60
2008,09,17,01,18,13.60
2008,09,17,01,19,13.60
2008,09,17,01,20,13.60
2008,09,17,01,21,13.60
2008,09,17,01,22,13.60
2008,09,17,01,23,13.60
2008,09,17,01,24,13.60
2008,09,17,01,25,13.60
2008,09,17,01,26,13.60
2008,09,17,01,27,13.60
2008,09,17,01,28,13.60
2008,09,17,01,29,13.60
2008,09,17,01,30,13.60
2008,09,17,01,31,13.60
2008,09,17,01,32,13.60
2008,09,17,01,33,13.60
2008,09,17,01,34,13.50
2008,09,17,01,35,13.50
2008,09,17,01,36,13.50
2008,09,17,01,37,13.50
2008,09,17,01,38,13.50
2008,09,17,01,39,13.50
2008,09,17,01,40,13.40
2008,09,17,01,41,13.40
2008,09,17,01,42,13.40
2008,09,17,01,43,13.40
2008,09,17,01,44,13.40
2008,09,17,01,45,13.30
2008,09,17,01,46,13.30
2008,09,17,01,47,13.30
2008,09,17,01,48,13.30
2008,09,17,01,49,13.30
2008,09,17,01,50,13.30
2008,09,17,01,51,13.30
2008,09,17,01,52,13.30
2008,09,17,01,53,13.30
2008,09,17,01,54,13.30
2008,09,17,01,55,13.30
2008,09,17,01,56,13.30
2008,09,17,01,57,13.30
2008,09,17,01,58,13.30
2008,09,17,01,59,13.30
2008,09,17,02,00,13.30
2008,09,17,02,01,13.30
2008,09,17,02,02,13.30
2008,09,17,02,03,13.30
2008,09,17,02,04,13.30
2008,09,17,02,05,13.30
2008,09,17,02,06,13.40
2008,09,17,02,07,13.40
2008,09,17,02,08,13.40
2008,09,17,02,09,13.40
2008,09,17,02,10,13.40
2008,09,17,02,11,13.40
2008,09,17,02,12,13.40
2008,09,17,02,13,13.40
2008,09,17,02,14,13.40
2008,09,17,02,15,13.40
2008,09,17,02,16,13.40
2008,09,17,02,17,13.40
2008,09,17,02,18,13.40
2008,09,17,02,19,13.40
2008,09,17,02,20,13.30
2008,09,17,02,21,13.30
2008,09,17,02,22,13.30
2008,09,17,02,23,13.30
2008,09,17,02,24,13.20
2008,09,17,02,25,13.20
2008,09,17,02,26,13.20
2008,09,17,02,27,13.20
2008,09,17,02,28,13.20
2008,09,17,02,29,13.20
2008,09,17,02,30,13.20
2008,09,17,02,31,13.20
2008,09,17,02,32,13.20
2008,09,17,02,33,13.20
2008,09,17,02,34,13.20
2008,09,17,02,35,13.20
2008,09,17,02,36,13.20
2008,09,17,02,37,13.20
2008,09,17,02,38,13.20
2008,09,17,02,39,13.20
2008,09,17,02,40,13.20
2008,09,17,02,41,13.20
2008,09,17,02,42,13.20
2008,09,17,02,43,13.20
2008,09,17,02,44,13.20
2008,09,17,02,45,13.20
2008,09,17,02,46,13.20
2008,09,17,02,47,13.20
2008,09,17,02,48,13.20
2008,09,17,02,49,13.20
2008,09,17,02,50,13.10
2008,09,17,02,51,13.10
2008,09,17,02,52,13.10
2008,09,17,02,53,13.10
2008,09,17,02,54,13.10
2008,09,17,02,55,13.00
2008,09,17,02,56,13.00
2008,09,17,02,57,13.00
2008,09,17,02,58,12.90
2008,09,17,02,59,12.90
2008,09,17,03,00,12.90
2008,09,17,03,01,12.90
2008,09,17,03,02,12.90
2008,09,17,03,03,12.90
2008,09,17,03,04,12.80
2008,09,17,03,05,12.80
2008,09,17,03,06,12.80
2008,09,17,03,07,12.80
2008,09,17,03,08,12.80
2008,09,17,03,09,12.80
2008,09,17,03,10,12.80
2008,09,17,03,11,12.80
2008,09,17,03,12,12.80
2008,09,17,03,13,12.80
2008,09,17,03,14,12.80
2008,09,17,03,15,12.80
2008,09,17,03,16,12.80
2008,09,17,03,17,12.80
2008,09,17,03,18,12.80
2008,09,17,03,19,12.80
2008,09,17,03,20,12.80
2008,09,17,03,21,12.80
2008,09,17,03,22,12.80
2008,09,17,03,23,12.80
2008,09,17,03,24,12.80
2008,09,17,03,25,12.80
2008,09,17,03,26,12.80
2008,09,17,03,27,12.80
2008,09,17,03,28,12.70
2008,09,17,03,29,12.70
2008,09,17,03,30,12.70
2008,09,17,03,31,12.70
2008,09,17,03,32,12.60
2008,09,17,03,33,12.60
2008,09,17,03,34,12.50
2008,09,17,03,35,12.50
2008,09,17,03,36,12.50
2008,09,17,03,37,12.40
2008,09,17,03,38,12.40
2008,09,17,03,39,12.40
2008,09,17,03,40,12.40
2008,09,17,03,41,12.40
2008,09,17,03,42,12.40
2008,09,17,03,43,12.40
2008,09,17,03,44,12.40
2008,09,17,03,45,12.40
2008,09,17,03,46,12.40
2008,09,17,03,47,12.40
2008,09,17,03,48,12.40
2008,09,17,03,49,12.40
2008,09,17,03,50,12.40
2008,09,17,03,51,12.40
2008,09,17,03,52,12.30
2008,09,17,03,53,12.30
2008,09,17,03,54,12.30
2008,09,17,03,55,12.30
2008,09,17,03,56,12.30
2008,09,17,03,57,12.30
2008,09,17,03,58,12.30
2008,09,17,03,59,12.30
2008,09,17,04,00,12.20
2008,09,17,04,01,12.20
2008,09,17,04,02,12.20
2008,09,17,04,03,12.20
2008,09,17,04,04,12.20
2008,09,17,04,05,12.20
2008,09,17,04,06,12.20
2008,09,17,04,07,12.20
2008,09,17,04,08,12.10
2008,09,17,04,09,12.10
2008,09,17,04,10,12.10
2008,09,17,04,11,12.10
2008,09,17,04,12,12.10
2008,09,17,04,13,12.10
2008,09,17,04,14,12.10
2008,09,17,04,15,12.10
2008,09,17,04,16,12.10
2008,09,17,04,17,12.10
2008,09,17,04,18,12.10
2008,09,17,04,19,12.10
2008,09,17,04,20,12.10
2008,09,17,04,21,12.10
2008,09,17,04,22,12.10
2008,09,17,04,23,12.10
2008,09,17,04,24,12.10
2008,09,17,04,25,12.10
2008,09,17,04,26,12.10
2008,09,17,04,27,12.10
2008,09,17,04,28,12.20
2008,09,17,04,29,12.10
2008,09,17,04,30,12.10
2008,09,17,04,31,12.10
2008,09,17,04,32,12.10
2008,09,17,04,33,12.10
2008,09,17,04,34,12.10
2008,09,17,04,35,12.10
2008,09,17,04,36,12.00
2008,09,17,04,37,12.00
2008,09,17,04,38,12.00
2008,09,17,04,39,12.00
2008,09,17,04,40,11.90
2008,09,17,04,41,11.90
2008,09,17,04,42,11.90
2008,09,17,04,43,11.90
2008,09,17,04,44,11.90
2008,09,17,04,45,11.80
2008,09,17,04,46,11.80
2008,09,17,04,47,11.80
2008,09,17,04,48,11.80
2008,09,17,04,49,11.80
2008,09,17,04,50,11.80
2008,09,17,04,51,11.80
2008,09,17,04,52,11.80
2008,09,17,04,53,11.80
2008,09,17,04,54,11.80
2008,09,17,04,55,11.80
2008,09,17,04,56,11.80
2008,09,17,04,57,11.80
2008,09,17,04,58,11.70
2008,09,17,04,59,11.70
2008,09,17,05,00,11.70
2008,09,17,05,01,11.70
2008,09,17,05,02,11.70
2008,09,17,05,03,11.70
2008,09,17,05,04,11.70
2008,09,17,05,05,11.70
2008,09,17,05,06,11.70
2008,09,17,05,07,11.60
2008,09,17,05,08,11.60
2008,09,17,05,09,11.60
2008,09,17,05,10,11.60
2008,09,17,05,11,11.60
2008,09,17,05,12,11.60
2008,09,17,05,13,11.60
2008,09,17,05,14,11.60
2008,09,17,05,15,11.60
2008,09,17,05,16,11.60
2008,09,17,05,17,11.60
2008,09,17,05,18,11.60
2008,09,17,05,19,11.60
2008,09,17,05,20,11.60
2008,09,17,05,21,11.60
2008,09,17,05,22,11.60
2008,09,17,05,23,11.60
2008,09,17,05,24,11.60
2008,09,17,05,25,11.60
2008,09,17,05,26,11.60
2008,09,17,05,27,11.60
2008,09,17,05,28,11.50
2008,09,17,05,29,11.50
2008,09,17,05,30,11.50
2008,09,17,05,31,11.40
2008,09,17,05,32,11.40
2008,09,17,05,33,11.40
2008,09,17,05,34,11.40
2008,09,17,05,35,11.30
2008,09,17,05,36,11.30
2008,09,17,05,37,11.30
2008,09,17,05,38,11.30
2008,09,17,05,39,11.30
2008,09,17,05,40,11.30
2008,09,17,05,41,11.30
2008,09,17,05,42,11.30
2008,09,17,05,43,11.30
2008,09,17,05,44,11.30
2008,09,17,05,45,11.30
2008,09,17,05,46,11.30
2008,09,17,05,47,11.30
2008,09,17,05,48,11.30
2008,09,17,05,49,11.30
2008,09,17,05,50,11.30
2008,09,17,05,51,11.20
2008,09,17,05,52,11.20
2008,09,17,05,53,11.20
2008,09,17,05,54,11.20
2008,09,17,05,55,11.20
2008,09,17,05,56,11.20
2008,09,17,05,57,11.20
2008,09,17,05,58,11.20
2008,09,17,05,59,11.20
2008,09,17,06,00,11.20
2008,09,17,06,01,11.20
2008,09,17,06,02,11.20
2008,09,17,06,03,11.30
2008,09,17,06,04,11.30
2008,09,17,06,05,11.30
2008,09,17,06,06,11.30
2008,09,17,06,07,11.30
2008,09,17,06,08,11.30
2008,09,17,06,09,11.30
2008,09,17,06,10,11.30
2008,09,17,06,11,11.30
2008,09,17,06,12,11.40
2008,09,17,06,13,11.30
2008,09,17,06,14,11.40
2008,09,17,06,15,11.40
2008,09,17,06,16,11.40
2008,09,17,06,17,11.40
2008,09,17,06,18,11.30
2008,09,17,06,19,11.30
2008,09,17,06,20,11.30
2008,09,17,06,21,11.30
2008,09,17,06,22,11.30
2008,09,17,06,23,11.30
2008,09,17,06,24,11.30
2008,09,17,06,25,11.30
2008,09,17,06,26,11.20
2008,09,17,06,27,11.20
2008,09,17,06,28,11.20
2008,09,17,06,29,11.20
2008,09,17,06,30,11.20
2008,09,17,06,31,11.20
2008,09,17,06,32,11.20
2008,09,17,06,33,11.20
2008,09,17,06,34,11.20
2008,09,17,06,35,11.20
2008,09,17,06,36,11.20
2008,09,17,06,37,11.20
2008,09,17,06,38,11.30
2008,09,17,06,39,11.30
2008,09,17,06,40,11.20
2008,09,17,06,41,11.20
2008,09,17,06,42,11.20
2008,09,17,06,43,11.20
2008,09,17,06,44,11.20
2008,09,17,06,45,11.20
2008,09,17,06,46,11.30
2008,09,17,06,47,11.30
2008,09,17,06,48,11.30
2008,09,17,06,49,11.40
2008,09,17,06,50,11.40
2008,09,17,06,51,11.40
2008,09,17,06,52,11.40
2008,09,17,06,53,11.40
2008,09,17,06,54,11.40
2008,09,17,06,55,11.40
2008,09,17,06,56,11.40
2008,09,17,06,57,11.40
2008,09,17,06,58,11.40
2008,09,17,06,59,11.40
2008,09,17,07,00,11.40
2008,09,17,07,01,11.40
2008,09,17,07,02,11.40
2008,09,17,07,03,11.40
2008,09,17,07,04,11.40
2008,09,17,07,05,11.40
2008,09,17,07,06,11.40
2008,09,17,07,07,11.40
2008,09,17,07,08,11.40
2008,09,17,07,09,11.40
2008,09,17,07,10,11.40
2008,09,17,07,11,11.50
2008,09,17,07,12,11.60
2008,09,17,07,13,11.60
2008,09,17,07,14,11.70
2008,09,17,07,15,11.70
2008,09,17,07,16,11.80
2008,09,17,07,17,11.80
2008,09,17,07,18,11.80
2008,09,17,07,19,11.80
2008,09,17,07,20,11.80
2008,09,17,07,21,11.80
2008,09,17,07,22,11.90
2008,09,17,07,23,11.90
2008,09,17,07,24,11.90
2008,09,17,07,25,12.00
2008,09,17,07,26,12.00
2008,09,17,07,27,12.10
2008,09,17,07,28,12.10
2008,09,17,07,29,12.10
2008,09,17,07,30,12.10
2008,09,17,07,31,12.10
2008,09,17,07,32,12.10
2008,09,17,07,33,12.10
2008,09,17,07,34,12.20
2008,09,17,07,35,12.20
2008,09,17,07,36,12.20
2008,09,17,07,37,12.20
2008,09,17,07,38,12.20
2008,09,17,07,39,12.20
2008,09,17,07,40,12.20
2008,09,17,07,41,12.20
2008,09,17,07,42,12.20
2008,09,17,07,43,12.20
2008,09,17,07,44,12.20
2008,09,17,07,45,12.30
2008,09,17,07,46,12.30
2008,09,17,07,47,12.30
2008,09,17,07,48,12.30
2008,09,17,07,49,12.30
2008,09,17,07,50,12.40
2008,09,17,07,51,12.50
2008,09,17,07,52,12.50
2008,09,17,07,53,12.60
2008,09,17,07,54,12.70
2008,09,17,07,55,12.80
2008,09,17,07,56,12.80
2008,09,17,07,57,12.90
2008,09,17,07,58,12.90
2008,09,17,07,59,12.90
2008,09,17,08,00,13.00
2008,09,17,08,01,13.00
2008,09,17,08,02,13.00
2008,09,17,08,03,13.00
2008,09,17,08,04,13.10
2008,09,17,08,05,13.10
2008,09,17,08,06,13.10
2008,09,17,08,07,13.10
2008,09,17,08,08,13.10
2008,09,17,08,09,13.10
2008,09,17,08,10,13.10
2008,09,17,08,11,13.10
2008,09,17,08,12,13.10
2008,09,17,08,13,13.10
2008,09,17,08,14,13.10
2008,09,17,08,15,13.10
2008,09,17,08,16,13.10
2008,09,17,08,17,13.20
2008,09,17,08,18,13.20
2008,09,17,08,19,13.20
2008,09,17,08,20,13.20
2008,09,17,08,21,13.20
2008,09,17,08,22,13.30
2008,09,17,08,23,13.30
2008,09,17,08,24,13.30
2008,09,17,08,25,13.40
2008,09,17,08,26,13.40
2008,09,17,08,27,13.40
2008,09,17,08,28,13.40
2008,09,17,08,29,13.50
2008,09,17,08,30,13.50
2008,09,17,08,31,13.50
2008,09,17,08,32,13.60
2008,09,17,08,33,13.70
2008,09,17,08,34,13.70
2008,09,17,08,35,13.80
2008,09,17,08,36,13.90
2008,09,17,08,37,13.90
2008,09,17,08,38,14.00
2008,09,17,08,39,14.00
2008,09,17,08,40,14.10
2008,09,17,08,41,14.20
2008,09,17,08,42,14.20
2008,09,17,08,43,14.30
2008,09,17,08,44,14.30
2008,09,17,08,45,14.40
2008,09,17,08,46,14.40
2008,09,17,08,47,14.40
2008,09,17,08,48,14.40
2008,09,17,08,49,14.40
2008,09,17,08,50,14.50
2008,09,17,08,51,14.50
2008,09,17,08,52,14.50
2008,09,17,08,53,14.60
2008,09,17,08,54,14.60
2008,09,17,08,55,14.70
2008,09,17,08,56,14.70
2008,09,17,08,57,14.80
2008,09,17,08,58,14.90
2008,09,17,08,59,15.00
2008,09,17,09,00,15.00
2008,09,17,09,01,15.00
2008,09,17,09,02,15.00
2008,09,17,09,03,15.00
2008,09,17,09,04,15.00
2008,09,17,09,05,15.00
2008,09,17,09,06,15.10
2008,09,17,09,07,15.10
2008,09,17,09,08,15.20
2008,09,17,09,09,15.20
2008,09,17,09,10,15.30
2008,09,17,09,11,15.30
2008,09,17,09,12,15.30
2008,09,17,09,13,15.40
2008,09,17,09,14,15.40
2008,09,17,09,15,15.40
2008,09,17,09,16,15.40
2008,09,17,09,17,15.40
2008,09,17,09,18,15.50
2008,09,17,09,19,15.50
2008,09,17,09,20,15.50
2008,09,17,09,21,15.50
2008,09,17,09,22,15.60
2008,09,17,09,23,15.60
2008,09,17,09,24,15.60
2008,09,17,09,25,15.70
2008,09,17,09,26,15.70
2008,09,17,09,27,15.70
2008,09,17,09,28,15.70
2008,09,17,09,29,15.90
2008,09,17,09,30,15.90
2008,09,17,09,31,15.90
2008,09,17,09,32,16.00
2008,09,17,09,33,16.10
2008,09,17,09,34,16.10
2008,09,17,09,35,16.20
2008,09,17,09,36,16.20
2008,09,17,09,37,16.20
2008,09,17,09,38,16.30
2008,09,17,09,39,16.30
2008,09,17,09,40,16.40
2008,09,17,09,41,16.40
2008,09,17,09,42,16.40
2008,09,17,09,43,16.50
2008,09,17,09,44,16.50
2008,09,17,09,45,16.60
2008,09,17,09,46,16.70
2008,09,17,09,47,16.70
2008,09,17,09,48,16.70
2008,09,17,09,49,16.80
2008,09,17,09,50,16.80
2008,09,17,09,51,16.80
2008,09,17,09,52,16.80
2008,09,17,09,53,16.90
2008,09,17,09,54,16.90
2008,09,17,09,55,16.90
2008,09,17,09,56,16.90
2008,09,17,09,57,16.90
2008,09,17,09,58,16.90
2008,09,17,09,59,16.90
2008,09,17,10,00,17.00
2008,09,17,10,01,17.00
2008,09,17,10,02,17.00
2008,09,17,10,03,17.10
2008,09,17,10,04,17.10
2008,09,17,10,05,17.20
2008,09,17,10,06,17.20
2008,09,17,10,07,17.20
2008,09,17,10,08,17.30
2008,09,17,10,09,17.30
2008,09,17,10,10,17.30
2008,09,17,10,11,17.40
2008,09,17,10,12,17.40
2008,09,17,10,13,17.50
2008,09,17,10,14,17.50
2008,09,17,10,15,17.60
2008,09,17,10,16,17.60
2008,09,17,10,17,17.70
2008,09,17,10,18,17.70
2008,09,17,10,19,17.70
2008,09,17,10,20,17.70
2008,09,17,10,21,17.70
2008,09,17,10,22,17.80
2008,09,17,10,23,17.80
2008,09,17,10,24,17.80
2008,09,17,10,25,17.80
2008,09,17,10,26,17.90
2008,09,17,10,27,17.90
2008,09,17,10,28,18.00
2008,09,17,10,29,18.10
2008,09,17,10,30,18.10
2008,09,17,10,31,18.20
2008,09,17,10,32,18.30
2008,09,17,10,33,18.40
2008,09,17,10,34,18.50
2008,09,17,10,35,18.60
2008,09,17,10,36,18.80
2008,09,17,10,37,18.90
2008,09,17,10,38,18.90
2008,09,17,10,39,19.00
2008,09,17,10,40,19.10
2008,09,17,10,41,19.20
2008,09,17,10,42,19.30
2008,09,17,10,43,19.40
2008,09,17,10,44,19.50
2008,09,17,10,45,19.70
2008,09,17,10,46,19.80
2008,09,17,10,47,20.00
2008,09,17,10,48,20.10
2008,09,17,10,49,20.10
2008,09,17,10,50,20.20
2008,09,17,10,51,20.30
2008,09,17,10,52,20.30
2008,09,17,10,53,20.30
2008,09,17,10,54,20.20
2008,09,17,10,55,20.10
2008,09,17,10,56,20.10
2008,09,17,10,57,20.10
2008,09,17,10,58,20.10
2008,09,17,10,59,20.10
2008,09,17,11,00,20.20
2008,09,17,11,01,20.30
2008,09,17,11,02,20.40
2008,09,17,11,03,20.40
2008,09,17,11,04,20.50
2008,09,17,11,05,20.50
2008,09,17,11,06,20.60
2008,09,17,11,07,20.60
2008,09,17,11,08,20.70
2008,09,17,11,09,20.80
2008,09,17,11,10,20.90
2008,09,17,11,11,20.90
2008,09,17,11,12,21.00
2008,09,17,11,13,21.00
2008,09,17,11,14,21.10
2008,09,17,11,15,21.10
2008,09,17,11,16,21.10
2008,09,17,11,17,21.10
2008,09,17,11,18,21.00
2008,09,17,11,19,21.00
2008,09,17,11,20,21.00
2008,09,17,11,21,20.90
2008,09,17,11,22,21.00
2008,09,17,11,23,21.00
2008,09,17,11,24,21.10
2008,09,17,11,25,21.10
2008,09,17,11,26,21.10
2008,09,17,11,27,21.20
2008,09,17,11,28,21.20
2008,09,17,11,29,21.30
2008,09,17,11,30,21.30
2008,09,17,11,31,21.30
2008,09,17,11,32,21.40
2008,09,17,11,33,21.50
2008,09,17,11,34,21.50
2008,09,17,11,35,21.60
2008,09,17,11,36,21.70
2008,09,17,11,37,21.80
2008,09,17,11,38,21.80
2008,09,17,11,39,21.90
2008,09,17,11,40,21.90
2008,09,17,11,41,21.90
2008,09,17,11,42,21.90
2008,09,17,11,43,21.90
2008,09,17,11,44,21.80
2008,09,17,11,45,21.80
2008,09,17,11,46,21.80
2008,09,17,11,47,21.70
2008,09,17,11,48,21.60
2008,09,17,11,49,21.60
2008,09,17,11,50,21.60
2008,09,17,11,51,21.60
2008,09,17,11,52,21.60
2008,09,17,11,53,21.60
2008,09,17,11,54,21.70
2008,09,17,11,55,21.80
2008,09,17,11,56,21.80
2008,09,17,11,57,21.90
2008,09,17,11,58,21.90
2008,09,17,11,59,22.00
2008,09,17,12,00,22.10
2008,09,17,12,01,22.10
2008,09,17,12,02,22.20
2008,09,17,12,03,22.20
2008,09,17,12,04,22.20
2008,09,17,12,05,22.30
2008,09,17,12,06,22.30
2008,09,17,12,07,22.40
2008,09,17,12,08,22.40
2008,09,17,12,09,22.40
2008,09,17,12,10,22.40
2008,09,17,12,11,22.40
2008,09,17,12,12,22.30
2008,09,17,12,13,22.30
2008,09,17,12,14,22.30
2008,09,17,12,15,22.30
2008,09,17,12,16,22.30
2008,09,17,12,17,22.20
2008,09,17,12,18,22.30
2008,09,17,12,19,22.30
2008,09,17,12,20,22.30
2008,09,17,12,21,22.30
2008,09,17,12,22,22.30
2008,09,17,12,23,22.30
2008,09,17,12,24,22.30
2008,09,17,12,25,22.30
2008,09,17,12,26,22.30
2008,09,17,12,27,22.30
2008,09,17,12,28,22.20
2008,09,17,12,29,22.20
2008,09,17,12,30,22.20
2008,09,17,12,31,22.20
2008,09,17,12,32,22.20
2008,09,17,12,33,22.30
2008,09,17,12,34,22.30
2008,09,17,12,35,22.30
2008,09,17,12,36,22.40
2008,09,17,12,37,22.40
2008,09,17,12,38,22.50
2008,09,17,12,39,22.50
2008,09,17,12,40,22.60
2008,09,17,12,41,22.60
2008,09,17,12,42,22.60
2008,09,17,12,43,22.60
2008,09,17,12,44,22.60
2008,09,17,12,45,22.60
2008,09,17,12,46,22.60
2008,09,17,12,47,22.60
2008,09,17,12,48,22.60
2008,09,17,12,49,22.60
2008,09,17,12,50,22.60
2008,09,17,12,51,22.60
2008,09,17,12,52,22.60
2008,09,17,12,53,22.70
2008,09,17,12,54,22.80
2008,09,17,12,55,22.80
2008,09,17,12,56,22.80
2008,09,17,12,57,22.90
2008,09,17,12,58,23.10
2008,09,17,12,59,23.20
2008,09,17,13,00,23.30
2008,09,17,13,01,23.50
2008,09,17,13,02,23.60
2008,09,17,13,03,23.70
2008,09,17,13,04,23.80
2008,09,17,13,05,23.80
2008,09,17,13,06,23.80
2008,09,17,13,07,23.80
2008,09,17,13,08,23.80
2008,09,17,13,09,23.80
2008,09,17,13,10,23.80
2008,09,17,13,11,23.80
2008,09,17,13,12,23.80
2008,09,17,13,13,23.80
2008,09,17,13,14,23.80
2008,09,17,13,15,23.80
2008,09,17,13,16,23.80
2008,09,17,13,17,23.90
2008,09,17,13,18,23.90
2008,09,17,13,19,24.00
2008,09,17,13,20,24.10
2008,09,17,13,21,24.20
2008,09,17,13,22,24.20
2008,09,17,13,23,24.30
2008,09,17,13,24,24.30
2008,09,17,13,25,24.30
2008,09,17,13,26,24.30
2008,09,17,13,27,24.30
2008,09,17,13,28,24.40
2008,09,17,13,29,24.40
2008,09,17,13,30,24.40
2008,09,17,13,31,24.50
2008,09,17,13,32,24.50
2008,09,17,13,33,24.50
2008,09,17,13,34,24.50
2008,09,17,13,35,24.50
2008,09,17,13,36,24.60
2008,09,17,13,37,24.60
2008,09,17,13,38,24.60
2008,09,17,13,39,24.60
2008,09,17,13,40,24.70
2008,09,17,13,41,24.70
2008,09,17,13,42,24.80
2008,09,17,13,43,24.80
2008,09,17,13,44,24.80
2008,09,17,13,45,24.80
2008,09,17,13,46,24.80
2008,09,17,13,47,24.80
2008,09,17,13,48,24.80
2008,09,17,13,49,24.90
2008,09,17,13,50,25.00
2008,09,17,13,51,25.00
2008,09,17,13,52,25.10
2008,09,17,13,53,25.20
2008,09,17,13,54,25.20
2008,09,17,13,55,25.20
2008,09,17,13,56,25.20
2008,09,17,13,57,25.30
2008,09,17,13,58,25.30
2008,09,17,13,59,25.30
2008,09,17,14,00,25.30
2008,09,17,14,01,25.30
2008,09,17,14,02,25.30
2008,09,17,14,03,25.30
2008,09,17,14,04,25.30
2008,09,17,14,05,25.30
2008,09,17,14,06,25.20
2008,09,17,14,07,25.20
2008,09,17,14,08,25.20
2008,09,17,14,09,25.10
2008,09,17,14,10,25.00
2008,09,17,14,11,25.00
2008,09,17,14,12,24.90
2008,09,17,14,13,24.90
2008,09,17,14,14,25.00
2008,09,17,14,15,25.00
2008,09,17,14,16,25.00
2008,09,17,14,17,25.00
2008,09,17,14,18,25.00
2008,09,17,14,19,25.00
2008,09,17,14,20,25.10
2008,09,17,14,21,25.10
2008,09,17,14,22,25.20
2008,09,17,14,23,25.20
2008,09,17,14,24,25.20
2008,09,17,14,25,25.10
2008,09,17,14,26,25.00
2008,09,17,14,27,25.00
2008,09,17,14,28,24.90
2008,09,17,14,29,24.90
2008,09,17,14,30,24.90
2008,09,17,14,31,24.80
2008,09,17,14,32,24.80
2008,09,17,14,33,24.70
2008,09,17,14,34,24.70
2008,09,17,14,35,24.70
2008,09,17,14,36,24.70
2008,09,17,14,37,24.60
2008,09,17,14,38,24.60
2008,09,17,14,39,24.60
2008,09,17,14,40,24.50
2008,09,17,14,41,24.50
2008,09,17,14,42,24.50
2008,09,17,14,43,24.60
2008,09,17,14,44,24.60
2008,09,17,14,45,24.60
2008,09,17,14,46,24.60
2008,09,17,14,47,24.60
2008,09,17,14,48,24.70
2008,09,17,14,49,24.70
2008,09,17,14,50,24.80
2008,09,17,14,51,24.80
2008,09,17,14,52,24.80
2008,09,17,14,53,24.90
2008,09,17,14,54,25.00
2008,09,17,14,55,25.10
2008,09,17,14,56,25.10
2008,09,17,14,57,25.20
2008,09,17,14,58,25.20
2008,09,17,14,59,25.30
2008,09,17,15,00,25.30
2008,09,17,15,01,25.40
2008,09,17,15,02,25.40
2008,09,17,15,03,25.40
2008,09,17,15,04,25.40
2008,09,17,15,05,25.30
2008,09,17,15,06,25.30
2008,09,17,15,07,25.20
2008,09,17,15,08,25.20
2008,09,17,15,09,25.20
2008,09,17,15,10,25.10
2008,09,17,15,11,25.10
2008,09,17,15,12,25.00
2008,09,17,15,13,24.90
2008,09,17,15,14,24.80
2008,09,17,15,15,24.80
2008,09,17,15,16,24.70
2008,09,17,15,17,24.70
2008,09,17,15,18,24.60
2008,09,17,15,19,24.60
2008,09,17,15,20,24.60
2008,09,17,15,21,24.60
2008,09,17,15,22,24.70
2008,09,17,15,23,24.70
2008,09,17,15,24,24.70
2008,09,17,15,25,24.80
2008,09,17,15,26,24.90
2008,09,17,15,27,24.90
2008,09,17,15,28,24.80
2008,09,17,15,29,24.80
2008,09,17,15,30,24.70
2008,09,17,15,31,24.70
2008,09,17,15,32,24.70
2008,09,17,15,33,24.60
2008,09,17,15,34,24.50
2008,09,17,15,35,24.50
2008,09,17,15,36,24.40
2008,09,17,15,37,24.30
2008,09,17,15,38,24.20
2008,09,17,15,39,24.20
2008,09,17,15,40,24.10
2008,09,17,15,41,24.10
2008,09,17,15,42,24.10
2008,09,17,15,43,24.10
2008,09,17,15,44,24.10
2008,09,17,15,45,24.10
2008,09,17,15,46,24.10
2008,09,17,15,47,24.10
2008,09,17,15,48,24.10
2008,09,17,15,49,24.10
2008,09,17,15,50,24.10
2008,09,17,15,51,24.00
2008,09,17,15,52,24.00
2008,09,17,15,53,23.90
2008,09,17,15,54,23.80
2008,09,17,15,55,23.60
2008,09,17,15,56,23.40
2008,09,17,15,57,23.30
2008,09,17,15,58,23.30
2008,09,17,15,59,23.20
2008,09,17,16,00,23.00
2008,09,17,16,01,22.90
2008,09,17,16,02,22.80
2008,09,17,16,03,22.80
2008,09,17,16,04,22.70
2008,09,17,16,05,22.70
2008,09,17,16,06,22.70
2008,09,17,16,07,22.60
2008,09,17,16,08,22.60
2008,09,17,16,09,22.60
2008,09,17,16,10,22.60
2008,09,17,16,11,22.60
2008,09,17,16,12,22.60
2008,09,17,16,13,22.50
2008,09,17,16,14,22.50
2008,09,17,16,15,22.50
2008,09,17,16,16,22.50
2008,09,17,16,17,22.60
2008,09,17,16,18,22.60
2008,09,17,16,19,22.50
2008,09,17,16,20,22.50
2008,09,17,16,21,22.50
2008,09,17,16,22,22.60
2008,09,17,16,23,22.60
2008,09,17,16,24,22.60
2008,09,17,16,25,22.60
2008,09,17,16,26,22.60
2008,09,17,16,27,22.60
2008,09,17,16,28,22.70
2008,09,17,16,29,22.70
2008,09,17,16,30,22.60
2008,09,17,16,31,22.60
2008,09,17,16,32,22.60
2008,09,17,16,33,22.60
2008,09,17,16,34,22.60
2008,09,17,16,35,22.50
2008,09,17,16,36,22.40
2008,09,17,16,37,22.40
2008,09,17,16,38,22.30
2008,09,17,16,39,22.20
2008,09,17,16,40,22.10
2008,09,17,16,41,22.00
2008,09,17,16,42,22.00
2008,09,17,16,43,21.90
2008,09,17,16,44,21.90
2008,09,17,16,45,21.80
2008,09,17,16,46,21.90
2008,09,17,16,47,21.90
2008,09,17,16,48,22.00
2008,09,17,16,49,22.00
2008,09,17,16,50,22.10
2008,09,17,16,51,22.10
2008,09,17,16,52,22.10
2008,09,17,16,53,22.20
2008,09,17,16,54,22.20
2008,09,17,16,55,22.30
2008,09,17,16,56,22.30
2008,09,17,16,57,22.40
2008,09,17,16,58,22.40
2008,09,17,16,59,22.50
2008,09,17,17,00,22.50
2008,09,17,17,01,22.60
2008,09,17,17,02,22.70
2008,09,17,17,03,22.80
2008,09,17,17,04,22.90
2008,09,17,17,05,22.90
2008,09,17,17,06,23.00
2008,09,17,17,07,23.00
2008,09,17,17,08,23.10
2008,09,17,17,09,23.10
2008,09,17,17,10,23.10
2008,09,17,17,11,23.20
2008,09,17,17,12,23.20
2008,09,17,17,13,23.20
2008,09,17,17,14,23.20
2008,09,17,17,15,23.20
2008,09,17,17,16,23.20
2008,09,17,17,17,23.20
2008,09,17,17,18,23.20
2008,09,17,17,19,23.20